Theta_e
312 314 315 315 313 311 310 312 311 311 311 310 311 312 312 312 312 313 313 312 310 309 309 309 309 309 309 309 308 306 305 304 303 302 302 301 301 300 300 300 299 299 299 298 298 298 298 297 297 297 297 297 296 296 296 296 296 296 296 297 297 297 297 297 298 299 298 298 298 298 297 296 296 297 300 302 305 306 308 309 309 313 318 320 322 322
314 315 316 313 311 309 310 311 310 310 310 311 312 312 312 312 312 313 312 311 310 309 309 309 308 308 308 309 307 306 304 303 302 302 301 301 300 300 300 300 299 299 299 298 298 297 297 296 296 296 296 296 296 296 296 296 296 295 295 296 296 296 296 296 297 298 299 298 298 297 297 297 296 295 297 299 302 304 306 307 306 308 313 317 320 321
314 315 313 310 310 309 310 310 309 310 311 311 313 313 313 313 312 312 311 311 309 309 309 308 308 308 308 308 307 306 304 302 302 301 301 300 300 300 299 299 299 298 298 298 297 297 296 295 295 295 295 295 295 296 296 296 296 295 295 295 295 295 296 296 296 296 298 299 298 298 297 298 298 296 295 297 299 302 305 307 308 309 310 312 316 320
313 313 310 309 310 309 310 310 310 311 311 312 313 313 312 313 312 311 311 310 309 308 308 308 308 308 308 307 306 305 304 303 302 301 301 300 300 299 299 298 298 297 297 296 296 296 295 295 295 295 295 295 295 295 295 295 295 295 295 295 295 295 295 295 295 295 296 297 298 299 298 298 298 297 296 296 297 300 303 305 306 308 309 308 311 317
312 311 309 309 310 310 311 311 312 312 311 312 314 313 312 312 310 310 309 308 308 309 308 308 307 307 308 307 305 304 304 304 302 301 300 300 299 299 298 298 297 297 296 296 296 295 295 295 295 295 294 294 294 294 294 294 294 295 295 295 295 295 295 295 295 295 295 296 297 298 299 298 298 297 296 295 296 297 299 302 304 305 306 307 308 312
311 309 309 311 311 311 312 312 313 312 310 311 313 311 310 309 308 309 308 308 308 308 308 307 305 307 309 308 306 305 304 303 301 300 300 299 299 298 298 297 296 296 296 296 295 295 295 294 294 294 294 294 294 294 294 294 294 294 294 295 295 295 295 295 295 295 295 296 296 297 298 298 298 298 297 296 295 296 296 298 302 304 304 306 307 308
309 308 309 311 312 312 313 312 313 311 310 311 310 308 308 308 308 308 308 308 308 307 307 306 305 306 307 307 308 305 304 302 300 300 300 299 298 298 297 296 296 296 296 296 295 294 294 294 294 294 294 294 294 294 294 294 294 294 294 294 294 295 295 295 295 295 295 295 295 296 297 298 298 298 298 297 295 295 295 296 299 303 304 305 307 308
309 308 309 310 311 311 311 311 312 310 310 310 308 306 306 306 307 307 307 308 307 306 306 306 307 306 306 307 308 306 303 301 300 300 299 299 298 297 296 296 296 296 295 295 295 294 294 294 294 294 294 294 293 293 294 293 293 294 294 294 294 294 295 295 295 295 295 295 295 295 296 297 298 298 298 298 296 295 295 295 296 300 304 305 306 308
309 310 310 310 310 310 310 310 310 310 310 308 305 305 305 305 306 307 308 308 307 306 305 306 307 307 307 308 308 305 303 302 300 299 299 298 297 297 296 296 296 295 295 295 294 294 294 293 294 293 293 293 293 293 293 293 294 293 293 294 294 294 294 294 294 295 295 295 295 295 295 296 297 298 298 298 296 294 294 295 295 297 302 305 305 307
309 308 308 308 309 309 309 307 307 308 309 306 304 306 307 307 308 308 308 306 305 305 305 306 307 307 307 307 307 305 304 303 300 299 298 298 297 296 296 296 295 295 295 295 294 294 293 293 293 293 293 293 293 293 293 293 293 293 293 293 294 293 293 293 294 294 294 295 295 295 295 295 296 297 298 299 297 294 294 294 295 295 298 303 304 304
308 306 306 307 308 308 307 305 305 305 305 305 306 307 308 308 308 307 306 304 304 305 306 306 307 306 304 305 306 304 302 301 299 298 298 298 297 296 296 295 295 295 294 294 294 293 293 293 293 293 293 293 293 293 293 293 293 293 293 293 293 293 293 293 293 293 293 294 294 295 295 295 296 296 298 299 298 295 294 294 295 294 295 299 303 303
308 308 308 307 307 307 306 306 307 305 306 307 307 307 306 306 306 305 305 304 304 306 306 305 305 303 302 303 303 302 300 299 298 298 297 297 297 296 295 295 295 294 294 294 293 293 293 293 293 293 293 293 293 293 293 293 293 293 293 293 293 292 292 292 292 292 293 293 294 294 295 295 295 296 297 298 299 297 294 294 294 294 294 296 300 302
310 309 308 307 305 307 308 308 309 307 307 307 306 305 305 305 306 306 306 305 305 306 305 302 301 300 300 302 302 300 299 298 298 297 297 296 296 295 295 295 294 294 294 293 293 293 293 293 293 293 293 293 293 293 293 293 293 293 292 292 292 292 292 292 292 292 292 293 293 294 294 294 295 295 296 297 298 298 296 294 294 294 294 294 296 299
311 309 307 307 307 306 308 309 309 309 306 305 305 305 304 304 304 304 305 305 305 306 303 301 300 300 301 303 302 300 298 298 298 297 297 296 295 295 295 294 294 294 293 293 293 292 292 293 293 293 293 293 293 293 292 292 292 292 292 291 291 291 291 291 291 292 292 292 293 293 294 294 294 295 296 297 298 298 297 295 294 294 294 294 295 296
312 312 309 307 306 305 307 307 306 306 305 304 304 303 303 304 303 303 303 303 304 303 302 301 300 300 302 302 302 300 298 298 298 297 296 296 295 295 294 294 294 294 293 293 292 292 292 292 292 292 292 292 292 292 292 291 291 291 291 290 290 290 289 289 288 289 291 292 292 293 293 293 294 295 295 296 297 298 298 296 294 294 294 294 294 294
310 312 308 304 303 303 304 304 303 304 305 303 303 303 303 303 302 302 302 302 301 300 300 301 301 301 302 301 300 299 298 298 298 297 296 295 295 294 294 294 294 293 293 292 292 292 292 292 292 292 292 292 291 291 291 291 291 290 290 289 289 287 286 285 285 286 288 289 289 290 292 293 294 294 295 296 297 297 298 298 296 294 294 294 294 294
310 311 306 302 301 301 300 301 302 304 304 302 302 302 301 300 300 299 300 301 300 299 301 301 301 302 302 301 299 298 298 298 297 297 296 295 295 294 294 294 293 293 293 292 292 292 292 292 292 292 292 291 291 291 290 290 290 289 288 287 286 285 284 284 284 284 285 286 287 288 289 291 293 294 295 295 297 297 297 298 297 295 294 294 294 294
309 309 306 303 303 300 298 300 300 300 302 302 301 301 300 299 298 297 297 299 300 300 301 301 301 301 300 300 299 298 298 297 297 296 295 295 294 294 294 293 293 293 292 292 292 292 292 292 292 291 291 291 290 289 289 289 288 287 286 286 285 284 285 285 283 283 284 285 287 288 288 290 293 294 295 295 296 297 297 298 298 296 294 294 294 294
306 307 306 304 303 300 298 300 301 299 299 300 300 299 298 298 298 298 297 298 299 300 301 301 300 300 300 300 299 298 297 296 296 295 295 294 294 294 294 293 293 292 292 292 292 292 291 291 291 291 290 290 289 288 287 287 286 285 285 285 285 284 284 285 283 282 283 284 286 287 288 290 292 294 295 295 296 297 297 297 298 297 295 294 294 294
304 305 306 302 300 300 299 301 302 300 298 298 298 298 298 297 297 298 298 298 298 299 299 300 299 299 299 299 298 298 297 296 295 294 294 294 294 294 293 293 292 292 292 292 292 291 291 291 291 290 289 289 288 287 286 285 285 284 284 284 284 284 283 284 284 283 283 283 283 285 287 288 290 292 294 295 295 296 297 297 298 297 296 294 294 294
303 304 304 301 298 299 300 301 302 302 300 299 298 298 298 297 297 297 297 297 297 297 297 297 297 298 298 297 297 297 296 295 295 294 294 294 294 293 293 292 292 292 292 292 291 291 291 291 290 289 288 288 287 286 285 284 284 284 284 284 283 283 282 282 283 283 282 282 282 283 284 286 288 289 291 293 295 296 296 296 297 298 297 295 294 294
303 303 304 302 299 300 301 299 299 300 300 299 299 298 298 297 297 297 297 297 296 296 296 296 296 297 297 297 296 296 296 296 295 294 294 294 294 293 292 292 292 292 292 291 291 291 290 290 289 288 288 287 285 285 284 283 283 283 283 283 282 281 281 281 282 282 281 280 280 281 282 283 285 287 289 291 293 295 296 296 297 297 297 296 294 294
301 301 303 303 301 300 298 297 296 297 298 298 298 298 298 297 297 297 297 297 295 295 295 295 295 296 297 296 296 296 296 296 295 294 294 294 293 293 292 292 292 292 291 291 290 290 290 289 288 287 287 285 284 284 283 282 282 282 281 281 280 280 281 280 280 281 280 279 279 280 280 280 282 283 286 290 292 293 295 296 297 297 297 297 295 294
299 300 300 302 301 297 295 295 296 296 296 296 297 296 297 297 297 296 296 296 295 295 295 295 295 296 297 297 297 296 296 296 295 294 294 293 293 292 292 291 291 291 291 291 290 290 289 288 287 286 285 284 283 283 282 281 281 281 280 280 279 279 279 279 278 279 279 278 277 278 279 279 279 281 283 287 290 292 293 294 296 296 297 297 296 295
301 301 299 300 301 299 297 296 295 295 295 295 296 296 297 297 296 296 295 295 294 295 294 294 294 295 296 297 297 297 296 296 295 294 293 293 293 292 292 291 291 291 290 290 290 289 288 287 286 285 284 283 283 282 281 281 281 280 279 278 278 278 278 278 277 277 277 277 277 277 278 278 279 279 281 283 286 289 290 292 294 295 296 296 297 296
301 301 299 301 302 303 303 300 297 296 295 295 295 296 296 296 296 295 295 295 295 295 295 294 294 295 296 297 296 296 296 295 294 294 293 293 292 292 291 291 291 291 290 290 289 288 287 286 285 284 283 283 283 282 281 281 280 278 278 277 277 277 277 276 276 276 276 276 276 277 277 278 279 279 280 280 282 285 288 290 292 294 295 296 296 296
298 298 298 300 302 303 304 300 297 297 296 295 296 296 296 296 296 295 295 295 295 295 295 295 295 295 296 296 296 296 295 294 294 294 293 292 292 292 291 291 291 290 290 289 288 287 286 285 284 283 283 282 282 281 281 281 279 277 277 276 276 276 276 275 275 275 275 275 276 276 277 278 278 279 279 279 280 282 285 288 290 292 294 295 296 296
296 296 297 299 299 300 300 298 296 296 295 295 295 295 295 296 297 296 295 294 294 294 294 295 295 295 295 295 295 295 294 294 293 293 293 292 292 291 291 291 290 290 290 289 287 286 285 284 284 283 282 282 281 280 281 280 278 277 276 275 275 275 274 274 274 274 274 275 275 275 276 277 277 278 279 279 279 280 282 285 288 291 292 294 295 295
296 297 298 298 298 298 298 297 297 296 295 295 295 295 294 295 296 296 295 294 294 294 294 294 294 294 294 294 294 294 294 293 293 293 292 292 292 291 291 291 290 289 289 288 287 285 285 284 283 282 281 281 280 279 280 279 277 276 275 274 274 274 273 274 274 274 274 274 274 275 275 276 277 277 278 279 279 279 280 282 284 288 290 291 293 294
296 297 297 297 297 297 296 296 296 295 295 295 295 295 294 294 294 295 295 294 294 294 294 293 293 293 294 294 294 294 294 293 293 292 292 292 292 291 291 290 290 289 288 287 286 285 284 283 282 281 280 280 280 278 278 277 276 275 274 273 273 273 273 273 273 273 273 273 273 274 274 275 276 277 277 278 279 279 279 280 282 285 287 289 290 292
296 297 296 295 296 297 296 296 295 295 295 295 295 295 295 294 294 294 294 294 294 294 294 293 293 293 294 295 295 294 294 293 292 292 292 292 291 291 290 290 289 288 287 286 285 284 283 282 281 281 280 279 279 277 277 276 275 274 273 273 273 272 272 272 272 272 272 272 273 273 273 274 274 275 277 277 278 278 279 279 280 282 285 286 287 289
295 296 296 296 297 298 297 296 296 295 295 295 294 295 295 294 294 294 294 295 295 294 294 294 294 294 294 295 294 293 293 293 292 292 292 292 291 290 290 289 288 287 286 285 284 283 282 281 280 280 279 278 278 277 276 275 274 273 273 273 272 272 271 271 271 271 271 271 272 272 272 273 274 275 276 277 278 278 278 278 279 281 283 285 286 287
295 295 295 296 297 297 296 295 294 293 294 295 295 295 295 294 294 294 294 294 294 294 294 294 294 294 294 294 293 292 293 292 292 292 291 291 291 290 290 289 287 286 284 283 283 282 281 280 279 279 278 277 277 276 275 274 273 273 272 272 271 271 271 270 270 271 271 271 271 271 272 273 273 274 275 276 277 278 278 278 279 280 281 283 285 287
296 296 295 296 296 295 294 293 293 294 295 296 296 295 295 294 294 294 294 294 294 294 294 294 294 294 294 293 292 292 292 292 292 292 291 290 290 290 289 288 286 285 283 282 282 281 280 279 278 278 277 277 276 276 275 274 273 272 272 271 270 270 270 270 270 270 270 270 271 271 272 272 273 273 274 276 277 278 278 278 279 279 280 282 284 286
296 296 295 296 296 295 293 292 294 296 296 294 294 295 295 294 294 294 294 294 294 294 294 293 293 293 293 293 293 292 292 292 291 291 290 290 290 289 287 286 285 283 282 281 280 280 279 278 277 277 277 276 276 275 274 273 273 272 271 270 270 269 269 269 269 269 270 270 270 271 271 272 272 273 274 274 276 278 279 279 279 279 279 280 283 285
296 296 295 296 295 295 294 294 296 297 294 292 293 293 293 293 293 292 292 293 293 293 293 293 292 293 293 293 292 292 292 291 290 290 290 290 289 287 286 285 283 282 281 280 279 278 278 277 276 276 276 276 275 274 274 274 273 271 270 270 270 269 269 269 269 269 269 270 270 270 271 271 272 272 273 273 274 277 279 279 279 279 279 280 283 285
296 296 295 295 295 295 294 295 296 296 295 295 295 294 293 293 293 293 292 293 293 293 293 292 292 292 292 292 292 292 291 290 290 291 291 289 287 286 285 283 282 281 280 279 278 277 276 276 276 276 276 276 276 275 273 273 272 271 270 270 269 268 268 268 268 268 268 269 269 269 270 270 270 271 271 272 273 275 278 279 279 280 280 281 283 286
295 295 295 295 295 295 294 294 295 295 296 297 296 295 294 293 293 293 292 292 293 293 293 293 292 292 291 292 292 291 290 290 290 291 291 288 286 285 284 282 281 279 279 278 277 277 276 276 277 277 277 277 277 276 273 273 273 271 269 268 268 267 267 268 268 268 268 268 268 269 269 269 269 270 270 271 272 274 276 278 279 280 281 282 283 286
294 294 294 294 295 295 295 295 295 295 296 296 294 293 293 292 292 292 292 292 293 293 293 292 291 291 291 292 291 290 289 289 290 291 290 287 285 284 283 281 280 279 279 278 276 276 276 277 277 278 277 277 276 275 275 275 274 270 268 269 269 268 267 267 267 267 268 268 268 268 268 269 269 270 270 271 273 274 275 277 279 280 281 282 284 287
293 293 293 293 294 295 295 295 295 296 296 294 292 291 292 292 292 292 292 293 293 292 292 292 291 292 292 291 291 290 289 290 290 290 288 286 284 284 282 281 279 279 279 278 277 276 276 277 277 277 278 277 276 276 277 276 274 272 270 269 269 267 266 266 266 267 267 268 268 268 269 269 270 271 272 272 274 275 276 277 279 281 282 283 285 288
292 292 293 293 293 294 295 295 295 295 295 293 291 291 291 291 291 291 292 293 292 292 292 292 292 292 291 291 290 290 290 290 289 287 286 284 284 283 282 281 279 279 278 276 276 276 276 276 276 277 277 276 276 277 277 276 277 276 271 267 267 267 266 266 267 268 269 269 269 270 271 272 272 273 274 275 276 277 277 277 278 281 283 284 285 288
292 292 293 293 293 293 294 295 294 294 295 294 292 291 291 291 292 292 293 292 292 292 292 292 291 291 290 290 289 289 289 288 286 285 284 283 282 282 281 280 280 279 278 276 275 274 274 275 275 276 277 277 276 276 275 275 276 275 271 269 270 269 266 266 268 269 270 270 271 273 274 275 275 275 276 277 278 278 279 279 279 281 284 285 286 288
293 292 292 293 293 293 293 294 293 294 295 294 292 291 291 292 293 293 293 293 292 292 292 291 291 291 289 289 288 288 287 286 285 284 283 282 282 281 280 279 279 278 277 276 275 274 274 274 275 275 276 276 276 277 276 274 274 275 274 273 272 269 267 269 270 271 271 272 273 275 276 278 278 278 278 280 281 280 281 281 282 283 285 286 287 288
294 293 293 294 294 293 293 294 294 294 294 293 292 292 292 292 293 293 293 293 292 292 291 291 291 290 289 288 288 287 287 285 284 283 282 281 281 280 279 279 278 277 276 275 274 274 273 274 274 274 275 276 276 277 277 274 275 277 276 274 273 271 270 271 272 274 276 277 277 278 278 279 281 281 282 283 283 283 283 284 284 285 286 287 288 288
295 294 294 294 294 294 294 295 294 294 294 293 293 293 293 293 293 292 292 292 292 292 291 290 290 289 289 288 288 287 286 285 283 282 281 281 281 280 278 278 277 276 275 275 274 274 273 273 273 274 274 275 276 277 277 276 276 277 276 275 275 273 271 272 275 277 279 280 280 280 279 280 282 283 284 285 286 285 285 285 286 287 288 288 288 289
294 294 294 294 294 295 295 294 294 294 294 293 293 293 293 293 293 292 292 291 291 291 291 290 289 289 288 288 288 287 286 284 283 282 281 281 281 280 278 277 276 275 275 274 274 273 273 273 273 273 274 275 275 276 277 277 277 276 276 277 276 274 273 274 275 276 279 281 281 280 279 279 282 284 286 287 287 287 287 287 287 288 288 289 289 290
294 293 293 294 295 295 295 294 293 293 294 293 292 292 292 292 292 292 291 291 291 291 290 290 289 289 288 288 287 287 286 284 283 282 282 281 280 279 278 277 276 275 274 274 274 273 273 272 272 272 273 274 275 275 277 277 277 277 277 277 276 276 275 275 274 276 279 281 281 281 281 280 281 284 287 288 288 288 288 288 288 289 289 290 291 292
294 294 293 294 294 294 294 294 294 293 293 293 292 292 292 291 291 291 291 291 291 290 290 290 289 289 288 287 287 286 286 284 283 282 282 281 280 279 278 276 275 275 274 274 273 273 272 272 271 272 272 273 274 274 276 277 277 277 277 277 277 277 276 275 275 277 278 280 280 280 281 281 281 283 286 288 288 288 289 289 289 290 290 291 292 293
295 294 293 293 293 294 294 294 294 293 293 293 293 292 292 292 291 291 291 291 290 290 290 289 289 288 288 287 286 286 285 284 283 282 282 280 279 278 277 276 275 275 274 274 273 272 272 271 271 271 271 272 273 274 275 277 277 278 278 277 277 277 276 275 277 278 278 279 279 279 279 281 281 282 285 287 288 288 288 289 290 290 291 293 293 294
294 294 294 293 293 293 294 294 294 294 293 293 293 293 292 292 292 291 291 291 290 290 290 289 289 288 288 287 286 285 285 284 283 282 281 280 279 278 277 276 275 275 274 274 273 272 271 271 271 271 271 272 273 273 274 276 277 278 278 277 278 278 275 273 276 278 278 277 278 278 278 279 281 282 284 286 287 289 289 290 292 292 292 293 294 295
294 294 294 294 294 294 294 294 294 294 294 294 293 293 292 292 291 291 291 290 290 290 289 289 288 288 288 287 286 285 284 284 283 282 281 279 278 277 277 276 275 274 274 273 273 272 271 271 271 271 271 272 272 273 274 275 276 277 278 277 278 278 275 273 274 276 277 276 276 277 277 277 279 281 282 284 286 287 288 290 292 293 294 294 295 295
Wind_Speed
5 6 5 3 4 5 5 3 4 5 5 7 8 8 9 10 7 6 4 5 6 5 6 9 12 12 14 5 11 13 12 12 10 8 6 5 5 6 8 10 11 12 13 14 16 19 19 20 21 21 22 24 26 27 29 28 27 30 31 31 32 33 34 35 35 35 36 38 37 37 40 41 42 42 41 39 35 30 28 29 31 33 34 39 44 44
4 6 2 3 4 5 4 3 4 5 7 7 7 8 8 8 7 7 3 4 4 5 6 10 12 14 14 2 13 12 10 10 8 7 7 6 7 7 7 8 10 12 13 15 17 18 20 22 23 24 25 27 29 29 30 28 28 30 29 29 30 32 33 34 35 34 35 38 39 39 40 41 42 43 43 41 40 35 30 29 29 32 33 34 41 44
5 4 2 4 3 2 3 3 4 6 7 7 6 7 7 6 8 5 2 3 5 7 7 9 11 14 6 9 12 10 10 9 8 7 7 7 7 7 8 9 12 15 15 17 19 20 23 25 26 26 27 29 29 30 30 30 30 30 28 29 31 32 32 33 35 35 35 37 39 40 39 37 38 42 43 41 40 37 33 29 28 29 30 31 35 40
7 3 4 2 1 2 4 3 5 7 7 7 5 6 7 6 7 3 0 7 11 6 5 9 10 9 2 11 8 8 10 9 8 7 6 5 5 7 8 10 14 16 18 19 20 21 23 25 26 26 28 30 30 31 31 32 32 31 31 33 33 33 33 33 35 36 36 36 38 38 37 34 34 39 42 42 40 37 35 31 28 28 28 29 31 34
10 3 4 1 2 2 5 5 6 6 6 6 4 4 6 6 7 7 8 13 11 1 4 8 11 5 7 11 8 8 8 8 7 5 5 4 5 7 9 11 14 16 17 19 20 23 27 28 29 29 29 30 31 31 32 33 34 34 35 36 36 36 35 34 34 36 37 36 35 35 36 35 35 38 41 43 42 39 38 36 31 30 29 29 30 32
8 2 3 2 2 2 5 7 4 2 6 7 1 2 5 6 8 10 12 12 9 2 5 9 9 4 5 11 10 9 8 9 7 3 4 4 6 8 10 13 15 16 16 18 22 28 31 32 32 32 33 33 34 35 35 36 37 37 38 38 38 38 38 36 34 36 37 36 35 34 34 34 35 36 35 39 43 42 41 41 36 32 31 31 31 33
2 2 2 1 2 4 6 7 2 2 6 6 2 2 4 6 8 10 12 9 6 7 6 6 6 6 5 7 11 12 10 10 7 4 4 4 7 9 12 14 16 18 19 21 25 31 33 32 33 34 34 34 36 37 37 38 39 40 41 41 42 40 40 39 36 35 36 36 36 34 34 34 35 35 31 34 42 44 42 41 40 34 32 31 31 34
2 1 1 1 3 5 6 5 1 2 5 3 3 3 5 7 9 10 10 7 7 10 10 6 8 8 8 6 10 13 11 10 6 2 4 5 7 11 14 16 18 21 23 24 27 33 34 33 34 35 35 36 37 38 38 39 40 42 43 44 43 42 42 41 40 38 36 36 38 36 35 34 34 35 33 34 40 43 42 41 41 37 33 32 32 34
2 1 1 1 3 4 4 2 3 1 4 2 5 4 5 7 9 9 8 8 8 9 8 6 6 6 7 4 10 11 10 9 4 2 4 6 10 14 16 18 20 23 24 24 27 33 34 34 35 35 37 37 37 38 38 39 42 45 47 46 45 45 45 45 44 41 38 37 38 38 37 35 35 35 37 37 39 43 44 41 40 39 36 33 34 36
2 2 1 1 3 4 2 4 3 0 2 3 4 6 7 8 8 8 7 8 7 6 9 9 7 7 7 4 7 8 9 7 1 2 4 8 12 15 17 19 23 26 26 25 27 33 34 34 35 36 37 38 38 38 39 42 48 51 49 46 45 45 46 47 46 42 40 39 38 38 37 36 36 36 38 40 40 43 45 43 40 39 38 35 35 39
0 2 1 2 3 2 2 3 2 1 3 5 5 7 7 7 7 7 6 6 6 6 6 6 7 6 6 4 5 4 3 3 1 3 5 9 13 15 18 22 25 26 26 26 29 33 35 35 36 36 37 39 40 40 43 49 52 51 49 46 44 45 46 46 46 44 43 41 40 39 38 37 38 36 37 41 41 41 44 44 41 39 39 37 36 39
3 3 2 2 1 1 2 3 2 3 5 5 5 5 6 6 6 5 4 2 5 6 1 5 4 5 7 4 2 4 5 5 2 4 5 9 13 18 21 24 25 25 25 27 31 33 36 37 37 38 39 41 43 45 49 53 52 49 48 46 44 45 46 45 45 45 44 43 41 40 39 39 38 36 36 39 41 41 42 43 42 39 39 38 36 37
4 4 3 3 2 3 3 3 3 4 5 5 4 3 5 6 5 4 3 3 6 5 3 7 3 4 10 9 4 7 7 4 4 5 6 10 16 21 23 25 25 25 26 28 32 35 37 38 39 40 42 45 49 52 53 54 52 49 47 46 47 48 47 46 47 45 44 43 42 40 39 39 39 38 37 38 40 40 41 42 42 40 38 38 38 36
3 2 5 4 3 4 5 4 3 3 3 3 2 2 3 4 5 6 5 5 6 4 4 4 4 6 9 9 7 8 8 5 5 7 8 12 18 20 22 24 25 25 26 29 33 36 37 39 40 41 43 49 54 54 54 54 52 49 47 47 48 47 45 44 46 44 42 41 40 40 40 39 38 38 36 37 38 38 40 43 42 39 38 37 37 36
6 3 4 4 2 4 5 3 3 2 1 1 1 2 3 4 4 6 5 6 7 7 4 2 3 5 5 3 7 10 8 5 5 7 9 15 18 20 22 24 24 25 26 30 34 36 37 39 40 41 44 49 52 52 54 56 51 46 46 47 47 46 47 50 53 52 46 42 41 41 41 40 39 38 37 37 38 38 39 42 42 40 38 37 36 36
7 6 3 2 1 2 3 0 2 2 1 2 1 0 2 2 4 5 7 7 7 9 8 4 3 4 3 4 12 10 6 4 4 8 11 17 20 21 22 23 24 25 27 31 34 36 37 38 40 43 45 47 49 51 54 56 51 44 45 49 51 50 51 52 52 52 49 49 50 50 47 43 39 39 38 37 38 37 36 37 41 42 39 37 36 35
5 4 5 4 1 2 0 1 1 3 1 2 2 2 1 3 2 5 8 4 2 7 6 5 5 6 4 4 9 8 4 2 5 9 13 18 21 21 21 22 24 26 29 32 34 35 37 39 42 44 45 46 47 50 53 53 48 44 46 51 52 51 52 50 46 45 45 46 50 51 47 43 40 39 38 36 36 36 36 37 40 43 40 36 36 35
2 3 4 5 2 2 1 1 1 2 2 1 2 1 3 3 1 2 4 3 3 9 6 5 8 8 6 3 6 8 3 3 7 10 14 19 21 21 21 23 26 29 32 34 34 36 39 44 46 47 47 47 48 51 52 50 47 46 49 51 49 50 52 51 48 46 44 42 43 43 40 39 39 38 37 36 35 34 35 37 39 41 40 37 36 35
1 3 3 2 1 3 2 2 3 1 1 1 0 1 1 1 2 3 2 3 6 8 7 6 8 7 7 4 4 6 3 7 9 11 14 18 20 21 23 26 29 31 34 36 37 39 44 48 48 47 49 50 52 54 52 51 50 49 48 48 47 48 47 46 47 46 44 42 40 38 36 36 38 38 36 36 35 34 34 36 38 40 41 37 35 35
1 3 2 1 2 3 3 4 6 5 3 3 0 1 1 1 3 3 2 2 5 7 7 8 8 4 4 2 4 2 6 8 9 12 14 16 20 23 25 28 32 34 35 37 39 44 47 48 47 48 50 51 52 52 51 53 52 48 48 48 46 46 45 43 44 43 43 44 43 38 36 35 34 35 35 35 35 35 35 36 37 40 40 37 35 34
2 4 3 1 1 2 4 4 5 5 5 5 5 5 4 2 2 3 3 2 3 6 6 8 9 5 3 4 1 4 7 5 9 14 14 17 22 24 26 30 32 35 36 37 41 46 46 44 45 48 50 52 53 50 51 54 53 48 49 49 45 45 46 43 41 44 45 45 44 44 42 38 35 34 35 34 35 36 36 35 36 39 39 37 35 34
2 3 3 2 3 5 4 1 2 3 2 5 6 6 6 6 5 4 5 3 2 4 5 6 11 8 2 2 3 5 3 4 11 15 15 19 24 24 27 31 33 34 36 38 42 44 42 42 46 49 49 50 51 50 51 54 52 48 47 47 43 43 44 43 42 45 47 45 42 43 45 44 40 38 37 35 34 34 36 35 35 38 39 38 36 35
1 0 4 5 4 4 2 2 2 3 3 3 5 5 5 6 7 6 6 3 2 6 6 5 11 8 4 4 2 1 2 7 14 17 17 20 23 24 28 32 33 34 36 39 41 40 40 42 45 47 46 47 50 51 52 52 51 49 47 45 44 42 42 43 42 42 44 45 43 41 44 46 44 40 39 38 35 32 33 34 35 36 37 38 38 36
2 1 3 5 3 3 3 1 1 0 2 4 5 7 6 6 7 7 5 2 2 7 6 4 11 7 5 5 4 4 5 12 16 18 19 21 22 25 30 32 33 35 37 38 38 38 41 44 45 45 46 48 52 53 53 52 51 50 47 44 44 44 43 42 42 41 41 44 45 42 42 43 42 41 38 38 38 35 33 32 34 36 36 37 39 37
5 2 3 3 4 3 3 3 3 4 5 5 6 8 8 8 7 4 2 1 3 7 8 7 11 9 1 3 5 6 9 14 17 19 19 19 22 26 29 31 33 35 37 36 36 38 42 44 45 45 45 45 47 49 53 55 53 49 47 44 43 43 43 41 41 41 41 43 44 42 41 41 40 40 37 35 38 39 35 32 32 35 35 36 40 39
5 3 5 5 6 7 5 3 3 4 5 5 6 10 11 11 11 6 2 5 6 7 10 11 11 11 7 6 9 12 13 15 17 19 18 19 23 26 28 30 33 35 35 34 35 39 42 43 44 45 47 48 48 47 52 57 54 49 47 45 43 42 43 42 41 40 41 43 44 43 41 39 38 37 36 36 38 38 36 32 30 32 33 35 39 40
2 3 7 10 10 10 7 3 2 5 5 6 8 13 13 13 13 8 4 7 8 7 11 13 12 15 15 14 16 15 14 15 15 16 18 20 24 27 29 31 33 34 33 33 36 39 40 42 46 49 50 52 52 48 52 56 51 48 48 46 44 42 41 42 41 40 40 42 44 44 42 39 37 36 36 36 37 38 38 36 33 30 29 32 37 40
1 4 8 13 15 13 11 7 2 6 7 9 10 13 15 14 13 11 10 10 7 6 12 11 11 15 16 15 16 14 14 15 13 14 18 22 25 28 31 33 34 34 33 34 37 39 40 43 47 51 54 56 55 51 55 57 50 46 48 47 45 43 41 41 40 40 40 41 42 44 44 42 39 36 36 35 36 39 39 38 38 36 30 28 33 38
2 5 7 10 14 14 12 11 7 7 9 11 11 13 15 16 15 15 17 15 11 11 14 12 12 16 16 16 17 15 15 14 13 16 20 23 26 30 32 33 33 32 33 36 38 38 39 42 45 48 55 61 59 54 56 57 50 47 47 45 44 43 40 40 40 39 40 41 41 42 43 43 42 38 37 36 35 37 39 39 39 41 39 32 30 34
2 4 5 7 12 13 12 12 10 10 12 12 14 16 15 16 18 19 20 20 19 20 19 18 21 21 17 16 17 16 15 13 14 18 21 23 26 30 32 32 31 31 34 36 37 37 39 42 44 47 53 59 58 55 57 57 50 47 47 44 43 42 40 41 41 39 40 42 41 41 41 42 43 41 39 37 36 36 38 40 39 41 44 39 33 32
4 2 2 3 8 10 10 11 11 12 14 15 17 17 16 17 19 20 19 19 19 21 22 22 22 19 16 16 15 14 13 13 14 18 21 23 26 30 31 30 29 31 35 35 35 37 39 43 46 48 53 59 58 54 57 56 49 44 43 41 42 42 40 39 40 39 41 43 42 42 42 42 42 41 41 39 38 37 39 41 40 40 44 43 40 36
4 2 2 1 6 7 6 9 11 11 13 18 21 18 17 18 18 17 17 17 16 18 20 19 16 13 12 11 11 12 13 13 14 17 20 22 26 29 28 26 27 31 34 34 34 36 38 42 46 47 51 57 57 55 57 55 47 43 42 41 40 42 42 41 41 41 42 44 43 42 42 42 41 41 42 40 39 39 39 40 40 40 43 44 44 42
5 3 2 3 4 4 1 2 4 6 9 14 13 15 19 21 20 17 15 16 17 16 14 12 11 10 9 8 10 12 11 11 14 16 18 21 25 27 24 23 27 30 33 33 34 35 36 41 44 45 48 52 52 54 55 49 42 41 41 41 42 43 44 45 44 44 45 45 45 44 42 42 42 42 42 42 41 40 40 41 41 41 41 43 44 43
7 5 3 4 3 1 3 3 1 6 9 6 3 14 22 21 20 18 15 15 16 15 13 11 11 11 11 10 11 12 11 13 14 15 19 23 23 20 20 24 28 29 31 33 34 34 36 40 44 47 50 51 52 55 52 42 37 39 40 44 49 50 47 45 45 44 45 46 45 43 43 42 43 43 43 42 42 42 42 41 40 40 40 40 40 42
7 6 4 4 3 1 2 2 3 8 7 2 3 7 13 11 11 12 12 13 14 14 16 15 14 14 13 12 12 13 15 16 15 18 24 22 14 12 18 26 29 29 31 33 34 36 38 41 45 50 53 55 57 56 49 42 44 49 50 50 51 49 46 44 45 45 46 46 45 43 43 42 42 43 44 43 41 41 43 42 39 38 38 36 36 39
7 6 4 3 3 1 2 5 6 5 3 2 2 2 4 4 6 8 9 12 13 15 15 14 15 15 12 12 13 14 17 17 16 20 19 9 6 13 21 26 29 30 31 33 34 36 38 41 45 50 53 55 57 53 47 49 54 55 53 50 48 48 48 47 47 47 45 45 44 43 43 42 41 42 45 45 40 38 40 40 37 36 36 34 33 34
7 6 4 3 4 3 3 7 7 8 10 9 8 8 8 8 7 6 7 7 8 11 13 12 13 12 8 10 12 13 16 15 13 12 6 1 10 25 28 25 26 28 30 33 35 36 37 41 46 50 52 55 57 53 49 55 59 54 52 54 54 52 51 49 48 47 45 45 44 44 43 43 43 44 44 43 40 37 37 38 37 35 34 33 31 31
7 6 5 4 4 3 3 6 8 10 11 7 4 5 7 6 5 2 4 5 7 13 15 12 10 8 6 9 10 10 11 10 8 6 5 10 22 31 31 25 24 26 30 34 38 40 42 44 48 51 52 54 57 55 51 56 61 57 55 55 52 50 50 50 50 48 47 47 47 46 45 44 44 44 43 42 40 37 35 37 39 36 33 32 30 29
5 5 5 5 6 5 6 7 8 8 7 1 5 7 10 11 9 4 4 6 5 12 13 9 7 7 7 8 7 5 6 7 7 8 13 22 29 30 31 29 29 32 36 37 39 42 45 47 49 50 52 53 56 56 56 60 62 57 52 52 54 55 56 56 56 56 55 54 51 49 49 46 44 43 42 41 39 36 34 36 38 36 32 31 29 27
5 5 6 8 9 8 9 8 7 7 4 2 7 9 11 11 8 2 5 4 5 11 12 10 7 8 7 6 4 3 4 6 8 14 23 30 32 31 31 32 34 38 39 40 42 43 45 48 49 50 51 53 55 57 58 61 62 60 57 59 63 63 59 57 59 59 58 55 53 52 52 50 47 43 41 38 35 33 32 33 35 34 31 30 28 26
6 6 7 9 10 10 10 9 8 7 5 4 8 13 13 9 4 4 5 2 9 10 10 10 8 7 6 6 5 5 8 10 13 21 28 30 32 33 33 34 35 36 37 38 40 42 44 47 48 49 50 51 54 57 59 59 62 65 63 61 61 60 59 60 63 62 59 57 54 51 50 48 45 41 37 34 31 29 27 28 32 32 29 28 27 24
7 6 7 8 9 9 9 9 8 8 7 11 14 17 15 7 4 6 2 8 12 9 7 9 8 6 6 7 6 8 12 15 17 23 26 26 28 31 33 35 36 36 37 38 38 39 42 45 47 48 49 50 52 55 57 59 62 65 64 60 60 61 62 63 64 63 61 60 56 52 47 43 39 37 33 29 26 25 23 23 27 28 27 27 26 22
8 7 6 8 8 6 7 8 7 6 7 17 17 11 9 7 6 4 5 8 9 6 4 6 6 5 6 7 7 11 16 18 19 22 23 24 27 29 31 33 35 36 37 39 40 40 42 44 47 47 48 49 51 54 56 57 60 62 63 64 63 63 63 63 62 62 60 58 54 48 43 39 35 33 29 25 23 21 19 18 21 25 25 26 26 23
8 7 5 6 7 6 7 9 6 1 8 23 19 7 12 19 13 7 7 5 3 4 6 5 5 6 8 9 11 16 18 18 19 20 22 24 26 28 30 32 33 34 36 38 39 40 41 43 46 47 47 48 49 52 55 56 58 61 64 64 62 61 63 63 61 58 56 54 50 43 38 37 34 30 26 23 21 19 16 15 18 23 25 26 26 24
9 7 3 3 7 6 5 5 3 2 10 24 21 9 14 24 20 13 11 7 5 7 9 7 6 8 10 11 13 17 18 17 17 19 22 24 26 28 29 30 31 33 35 37 38 40 41 42 44 46 48 47 47 50 53 56 59 62 63 63 62 61 61 60 59 56 54 52 49 44 40 37 34 29 25 21 20 18 14 13 16 21 24 24 24 23
5 4 2 1 5 6 8 6 4 4 9 19 21 14 12 18 20 16 13 11 9 11 11 10 9 10 12 14 15 17 17 17 18 20 22 24 26 27 29 30 31 32 34 36 38 39 40 41 43 45 47 47 47 49 51 54 57 59 61 62 62 59 58 58 58 57 53 50 48 46 42 39 34 28 23 19 18 18 15 14 16 20 21 21 20 19
5 7 4 4 5 5 5 5 9 11 12 15 19 20 16 16 18 17 15 13 12 13 13 12 11 12 13 15 15 16 16 17 19 21 23 24 26 27 29 30 31 32 34 35 37 38 40 42 42 44 46 47 47 48 50 52 54 56 58 60 60 58 56 56 57 55 52 49 48 46 43 39 34 28 23 19 17 16 16 16 18 20 22 22 21 19
8 11 7 7 8 7 5 3 6 11 14 14 17 20 20 21 21 19 17 15 14 15 15 13 12 13 15 15 15 15 16 17 18 21 23 24 25 26 28 30 31 32 33 34 35 37 38 40 41 42 44 45 46 47 49 50 53 55 56 57 58 57 55 55 54 53 52 50 49 47 44 40 37 31 24 20 18 18 17 17 19 22 23 22 20 20
11 11 7 6 8 8 7 7 6 5 7 13 19 22 23 24 24 21 18 17 16 16 15 13 13 15 15 15 15 15 16 16 17 20 22 22 23 25 26 29 30 32 33 34 35 35 36 37 39 41 42 43 44 46 47 48 51 53 55 56 57 55 53 54 53 52 52 51 50 48 45 41 36 32 26 21 19 19 19 18 19 22 24 23 20 20
11 7 5 5 7 8 7 9 11 6 4 10 17 21 22 22 21 19 18 17 16 16 15 14 15 16 16 15 15 15 15 16 17 19 20 21 22 23 25 27 29 31 32 33 35 35 35 35 37 39 40 42 42 43 45 47 49 52 53 55 55 53 52 53 53 52 52 51 50 49 46 42 37 32 28 23 18 18 20 19 17 18 21 23 22 21
10 10 9 7 6 7 7 11 14 10 6 7 10 14 16 16 16 17 16 16 16 16 15 15 16 16 16 15 15 15 15 16 17 18 19 19 20 21 23 25 28 30 31 32 34 35 35 35 36 37 39 41 41 42 44 45 47 50 52 52 53 52 50 51 51 51 50 51 51 48 45 42 38 34 29 24 20 19 21 21 17 14 14 17 19 21
Wind_Direction
322 305 278 308 345 341 334 316 310 302 292 288 283 280 280 286 285 291 310 102 75 334 284 298 304 302 307 297 141 135 122 116 117 114 99 83 62 34 24 10 2 354 348 347 346 347 346 343 343 342 343 342 340 339 338 336 335 337 336 334 332 330 330 328 326 323 321 325 326 325 327 325 318 313 310 305 299 294 290 292 295 292 282 269 260 253
288 290 305 48 0 331 320 296 299 289 287 285 280 289 290 289 304 317 318 113 55 332 291 302 307 305 304 214 143 141 128 119 114 104 88 66 45 30 15 1 355 349 347 347 347 348 348 347 346 343 341 339 337 336 335 333 331 331 330 329 327 325 324 322 321 318 314 316 320 321 323 323 321 318 315 311 304 297 292 290 294 296 292 281 268 256
294 291 81 54 10 306 262 252 283 282 281 283 284 291 290 314 336 322 136 90 339 309 302 315 311 305 300 141 146 147 127 115 108 94 77 58 40 22 10 1 354 353 353 348 346 346 347 347 345 341 338 336 335 333 331 329 327 326 326 325 323 320 317 314 314 314 311 310 312 316 318 318 318 317 316 314 308 302 296 289 287 292 293 291 281 263
297 324 78 54 115 236 255 243 273 278 277 277 282 289 291 335 350 310 146 340 321 309 321 316 301 300 127 134 144 140 128 124 118 103 93 76 42 22 11 5 360 356 349 344 343 344 345 344 341 339 336 334 332 330 328 327 326 323 320 320 319 317 313 309 307 307 308 307 307 310 312 311 312 315 315 313 311 306 299 289 280 282 290 294 291 273
278 319 71 103 168 263 284 275 277 284 294 288 278 288 302 336 333 301 310 320 312 314 47 340 308 289 153 160 163 144 144 142 133 115 108 92 41 26 14 6 358 351 345 341 343 344 345 342 339 335 333 332 329 327 327 326 325 321 317 316 314 314 311 306 304 304 305 305 303 303 306 307 310 314 315 313 312 311 308 302 288 278 281 288 292 284
276 350 73 188 211 273 288 289 300 326 297 296 46 39 340 331 314 308 317 325 316 282 52 18 326 291 174 185 173 155 169 159 153 151 114 64 35 25 8 360 351 346 344 342 347 348 344 339 334 331 330 331 328 327 326 323 322 320 317 315 312 310 308 304 302 302 303 302 301 300 301 303 306 309 312 311 312 313 312 310 302 287 278 282 286 285
282 72 73 252 273 287 282 282 314 48 297 295 60 30 344 315 306 317 320 325 316 294 332 357 295 278 273 226 172 162 179 169 161 148 98 43 30 18 358 353 348 347 347 348 350 347 341 335 330 328 328 329 327 325 324 322 320 319 316 314 310 308 306 303 301 301 300 298 297 298 297 297 298 299 301 306 309 311 311 310 307 297 281 278 281 281
123 147 209 270 291 281 282 284 48 30 292 303 36 345 328 316 304 312 311 302 299 299 302 278 245 259 283 256 167 164 180 175 171 134 72 40 17 2 354 353 350 351 350 349 347 341 336 332 329 326 324 324 324 323 321 320 319 318 316 312 309 307 305 303 301 298 297 296 295 295 295 293 292 291 292 301 307 307 309 309 307 302 288 275 272 273
66 6 256 285 286 276 294 354 62 351 259 334 20 324 297 295 284 287 290 290 297 303 292 260 224 240 272 237 158 170 197 195 180 66 42 22 7 357 354 352 350 351 349 344 340 335 331 329 326 324 322 322 323 322 321 319 319 318 314 310 307 306 304 304 302 297 294 294 293 292 292 291 289 288 289 295 303 305 306 307 307 305 295 279 270 266
39 42 17 314 279 281 9 64 59 337 254 338 339 282 261 252 258 266 270 290 300 287 274 256 216 230 274 252 180 193 213 214 224 28 19 6 1 356 352 350 349 348 343 337 332 329 327 325 324 322 321 321 321 319 318 317 318 318 315 309 306 305 304 303 302 299 295 294 292 290 289 288 287 287 287 290 297 304 304 304 308 307 300 288 276 268
149 94 202 243 278 305 64 81 55 337 292 307 290 275 272 258 263 266 262 289 291 271 266 231 197 227 273 263 224 217 175 152 352 338 357 359 354 352 351 350 348 343 337 332 328 326 323 322 322 322 322 320 319 318 317 318 317 317 315 310 305 304 304 304 302 299 296 294 291 289 287 286 286 284 285 285 289 298 302 302 306 308 305 297 284 275
213 213 196 155 264 292 155 203 217 240 268 278 267 289 306 293 288 272 244 233 251 264 280 126 149 232 246 247 189 128 110 101 48 344 351 352 348 351 351 347 342 335 332 330 326 323 322 321 321 322 321 320 320 318 317 318 318 316 312 310 307 306 306 305 304 300 297 295 290 288 286 285 285 283 282 281 283 291 297 299 303 307 307 303 294 283
222 203 139 105 171 202 210 219 207 216 238 250 255 304 319 308 306 277 240 230 250 259 129 114 78 263 248 263 243 153 131 115 67 22 2 355 350 350 348 340 334 330 330 328 325 323 321 321 322 321 321 321 321 320 319 319 319 317 314 310 307 307 308 307 306 302 298 295 291 287 286 285 285 283 280 279 279 284 292 297 299 303 306 305 303 293
268 143 138 149 161 184 216 236 239 219 205 226 256 319 302 302 305 287 283 279 268 258 141 102 1 294 268 273 235 169 135 107 58 27 6 358 351 346 340 332 329 329 329 327 325 323 321 320 321 321 321 321 320 320 322 321 318 316 314 312 309 308 310 309 307 304 300 300 296 289 286 286 284 283 279 277 278 278 284 293 296 298 303 304 306 304
268 272 165 173 148 160 201 241 315 336 111 182 15 342 263 258 265 277 305 302 293 296 276 272 307 279 301 3 125 135 132 115 45 13 358 353 346 339 333 328 328 328 327 326 323 321 321 321 323 322 322 322 321 319 320 320 317 314 313 314 311 308 309 308 304 299 294 294 296 293 290 288 284 281 279 275 275 276 278 288 294 293 298 301 303 308
247 254 124 101 30 153 190 177 347 308 198 144 87 199 241 251 254 269 296 297 302 305 281 229 224 252 284 97 118 129 149 145 13 355 351 345 339 333 330 327 328 327 325 325 322 321 322 321 322 322 321 322 321 320 319 317 315 313 314 314 311 307 310 312 308 301 294 289 288 286 287 289 285 280 279 275 272 274 274 280 289 291 293 299 300 306
254 252 119 122 61 81 64 348 328 294 264 154 166 193 93 50 327 274 286 299 298 287 270 202 239 267 258 168 141 146 165 199 329 346 346 338 334 331 329 328 327 326 325 323 321 321 322 321 321 321 320 320 320 320 320 319 317 313 314 317 314 311 314 317 314 310 306 301 295 288 283 285 288 281 277 276 272 272 273 273 282 287 289 295 298 303
267 268 163 162 164 96 33 297 197 311 309 213 195 170 99 82 65 235 270 305 266 268 266 229 258 272 270 254 162 166 193 321 330 343 340 332 333 331 328 328 327 326 324 322 322 322 322 322 322 323 323 322 322 322 322 320 318 314 315 319 317 314 315 317 316 311 310 309 307 300 288 282 287 285 278 277 274 271 273 271 274 283 288 291 297 301
2 266 204 151 124 127 147 234 191 196 1 58 347 2 131 228 227 181 207 276 270 273 280 272 275 264 250 255 159 179 280 336 333 336 334 330 334 333 330 329 327 327 326 324 325 325 325 326 325 326 327 325 324 325 325 322 318 316 318 318 315 312 312 313 313 312 311 309 305 305 299 289 288 287 280 277 277 272 271 271 271 278 285 289 294 299
115 240 230 41 52 120 170 223 211 198 139 105 86 227 155 250 249 232 220 249 266 279 288 290 295 275 233 198 134 208 324 338 330 332 332 331 333 332 330 329 328 328 327 325 326 325 325 326 327 327 326 325 325 324 325 325 322 319 321 320 316 312 311 310 310 309 309 307 302 301 299 293 292 294 289 280 277 275 272 271 270 274 281 286 290 296
160 217 228 50 72 150 193 209 220 217 178 173 204 205 190 178 205 254 253 193 237 269 278 286 289 276 139 111 112 315 330 334 329 332 329 328 330 330 329 328 328 328 326 325 325 324 323 323 325 326 325 326 328 326 325 327 326 321 322 323 318 313 311 310 309 308 308 306 304 303 298 290 287 293 297 292 283 277 273 271 270 270 278 284 286 292
178 208 225 209 197 208 209 114 345 304 226 200 205 200 208 203 188 231 242 190 163 244 246 268 280 274 168 139 306 317 322 323 329 330 327 326 327 328 328 327 327 326 324 324 324 323 322 322 324 325 325 325 327 327 325 327 328 324 322 321 317 313 312 310 309 309 308 307 305 305 303 297 291 286 287 292 291 284 276 271 270 270 274 282 283 286
74 65 235 238 219 194 175 53 9 324 310 272 240 220 224 214 191 208 233 210 169 232 232 249 273 274 139 146 258 242 252 313 328 328 326 324 325 326 325 324 325 323 322 323 323 321 321 322 323 324 324 324 326 327 325 326 329 327 324 321 318 314 312 310 309 308 307 307 304 303 303 304 303 294 282 280 286 290 285 275 271 272 272 278 283 284
97 98 222 248 255 137 135 140 82 281 250 261 243 219 219 215 198 210 237 277 268 234 216 228 257 260 107 126 184 194 272 313 325 327 325 322 322 325 324 323 324 323 321 322 322 322 323 323 324 324 324 325 326 328 329 327 327 326 324 322 319 315 312 310 309 307 305 305 304 302 302 302 305 304 293 280 277 283 291 284 274 274 272 273 279 282
168 178 172 220 257 217 184 202 199 188 201 228 228 203 200 203 198 209 245 266 260 231 209 222 252 260 93 124 197 237 291 314 322 323 324 322 321 323 323 322 323 322 321 321 321 323 324 323 324 325 325 326 324 325 330 330 327 323 321 320 318 314 312 310 309 308 304 303 303 303 302 302 302 304 302 291 279 275 284 291 283 278 276 273 275 278
182 215 182 194 233 230 231 241 203 185 189 213 218 201 199 201 194 184 190 219 233 230 218 224 248 265 271 261 261 277 298 310 316 319 321 320 319 321 322 321 321 320 319 321 322 323 323 322 323 325 327 330 328 325 330 331 326 322 320 318 317 314 312 311 309 308 305 302 303 303 302 302 301 301 301 298 289 276 272 281 285 282 279 274 273 275
207 265 221 226 237 240 262 304 118 155 185 201 204 201 202 204 197 187 203 225 229 249 246 237 246 266 273 274 276 287 302 307 313 319 318 318 318 319 321 321 321 320 319 321 324 324 321 320 323 327 330 332 331 328 331 332 326 322 321 318 317 315 311 311 309 307 305 303 303 302 301 301 300 299 300 298 297 289 275 267 269 273 277 275 274 276
224 247 230 238 246 254 277 294 175 177 216 226 218 214 212 205 196 197 217 222 208 241 256 246 242 259 270 275 279 292 307 308 315 318 316 318 318 319 322 322 321 320 320 322 324 324 322 320 322 327 330 333 333 331 333 331 324 321 320 317 316 315 311 310 308 306 306 304 303 302 301 302 300 298 299 296 296 297 288 273 262 262 269 272 272 275
243 252 230 235 250 256 265 268 244 230 246 243 234 232 225 212 201 206 222 223 208 226 253 266 267 267 272 277 284 298 306 306 312 314 314 316 317 320 322 320 320 321 322 323 323 322 320 319 319 323 328 333 333 331 332 331 325 321 320 316 315 315 312 311 308 305 305 304 302 301 300 301 300 297 297 296 292 294 293 285 269 260 263 267 269 274
226 260 228 233 259 261 253 256 258 258 262 257 246 241 234 224 217 218 225 225 225 237 252 265 271 271 272 275 284 294 299 302 308 310 312 316 317 321 321 318 319 323 324 323 321 320 318 318 319 322 327 331 331 329 331 331 325 320 319 317 316 315 313 312 309 304 304 303 301 300 299 299 298 295 294 294 291 290 291 290 281 265 261 263 264 269
213 215 145 220 265 262 245 243 249 257 262 263 257 246 236 235 233 232 231 226 230 243 251 257 264 268 268 271 281 291 297 306 309 309 313 316 318 320 318 317 319 321 323 322 319 320 319 319 322 324 327 331 331 329 330 329 324 319 318 317 317 317 313 310 307 303 302 302 300 300 299 298 297 294 292 291 290 290 289 290 288 275 264 262 261 261
210 215 109 159 264 268 245 234 244 264 274 268 261 245 232 232 233 235 233 224 224 235 245 252 254 258 265 273 286 296 300 305 306 310 315 314 315 316 313 314 317 319 321 321 319 320 320 320 322 323 326 330 330 328 329 329 324 320 319 317 315 317 315 311 307 304 303 302 301 300 299 297 297 295 291 288 287 289 290 291 290 282 272 265 261 259
189 204 164 173 250 282 224 193 252 292 287 271 252 224 221 227 231 235 235 227 223 224 236 247 245 251 273 287 294 296 297 301 305 311 313 309 310 311 309 311 317 319 319 318 318 319 318 319 321 320 324 327 326 326 327 325 321 319 321 319 316 316 315 312 309 305 303 302 302 301 299 298 298 297 294 291 289 289 291 290 287 285 279 271 263 260
189 188 178 187 220 251 122 109 320 273 262 272 197 196 211 222 229 235 235 228 223 222 231 245 251 261 276 285 291 296 296 302 309 309 306 304 303 304 308 313 317 318 318 318 319 319 318 319 320 323 327 328 328 328 326 323 319 317 317 318 319 320 317 312 311 308 305 304 303 301 300 298 298 298 297 296 293 289 290 291 287 283 282 277 267 260
183 180 177 199 217 198 122 124 266 261 254 331 43 191 204 212 222 235 244 237 229 230 237 246 256 264 274 282 289 295 298 305 312 307 302 300 295 300 312 316 318 319 319 319 320 320 320 321 324 328 331 332 334 333 328 325 323 323 323 322 318 318 317 312 309 307 305 306 304 301 301 300 299 297 296 297 294 288 287 289 287 282 281 280 271 262
173 177 175 186 197 198 175 195 224 272 304 301 279 198 170 190 210 228 252 244 229 231 238 245 257 264 273 287 290 296 304 311 310 303 300 290 284 315 320 318 318 319 318 318 320 319 320 322 325 329 331 335 338 335 330 331 331 325 323 323 321 321 322 318 315 312 309 307 305 303 301 299 298 296 295 296 294 287 283 285 285 282 279 277 272 266
171 176 176 193 205 204 215 221 241 293 295 266 241 217 205 210 209 225 267 251 211 223 238 243 253 262 272 284 291 302 311 314 304 298 308 26 315 322 325 320 316 316 315 317 321 322 323 325 329 333 335 338 341 339 335 335 334 328 325 329 331 330 327 323 319 316 312 308 307 306 304 302 300 298 297 297 294 287 282 281 282 283 279 273 269 268
191 191 175 200 226 195 203 244 258 272 274 263 222 190 178 165 145 136 298 277 211 222 235 234 237 252 268 280 291 308 314 309 297 300 346 338 324 326 329 322 316 317 319 323 328 331 332 334 336 339 339 340 342 343 340 337 337 336 333 331 328 324 323 323 324 322 319 315 313 312 310 306 302 298 296 296 294 287 281 281 282 282 279 273 268 267
205 211 192 218 243 212 206 237 243 247 262 232 126 123 114 113 113 107 297 286 215 201 206 200 211 243 264 275 283 300 306 298 298 315 328 326 325 328 329 326 325 328 330 332 334 335 336 338 340 340 341 343 344 344 343 344 344 340 332 328 331 333 333 333 333 332 330 327 323 320 318 314 309 304 300 299 296 287 280 281 283 282 276 269 266 266
189 200 203 221 233 222 220 236 244 251 263 131 126 125 118 117 118 136 278 280 131 147 164 173 208 245 252 258 253 250 274 286 298 312 319 322 326 330 330 329 330 333 335 336 337 338 338 339 341 342 343 345 344 344 347 348 345 340 338 340 340 337 334 333 334 334 333 331 327 323 321 319 316 312 307 303 298 289 279 276 278 279 273 265 266 269
190 197 206 217 225 223 223 236 254 262 238 166 140 138 131 121 138 220 257 178 139 152 174 188 216 238 226 221 225 245 275 286 293 307 317 323 326 329 331 331 331 334 336 336 337 339 339 339 341 342 343 345 346 347 349 349 345 343 344 343 337 333 335 337 338 338 337 336 332 328 325 323 319 315 310 305 300 292 281 274 275 277 272 266 269 271
181 193 213 216 216 219 223 236 265 273 225 182 164 153 144 138 223 229 173 134 156 174 183 192 213 229 212 213 235 265 285 293 299 310 320 323 322 325 330 331 332 336 338 336 337 339 339 339 341 343 344 347 348 348 349 350 348 345 343 341 340 341 343 342 341 341 340 338 337 335 332 329 324 319 315 309 303 295 284 276 275 275 271 269 270 270
171 175 207 209 196 200 219 222 245 271 195 162 152 148 161 195 236 217 149 150 176 202 218 209 213 223 224 239 271 289 297 304 309 316 320 318 321 327 330 332 334 338 339 338 338 341 341 340 341 343 346 348 348 349 351 351 348 345 344 345 346 346 346 345 345 344 342 341 341 338 336 336 334 328 322 315 308 298 288 280 276 272 269 270 270 267
184 176 194 201 177 173 203 207 209 294 149 155 153 163 206 211 220 211 188 195 221 240 247 243 225 233 253 274 293 301 306 309 313 317 317 318 324 329 330 332 337 339 339 338 339 341 343 342 342 343 347 349 349 350 353 352 348 347 347 347 346 346 349 349 347 345 346 347 346 344 343 344 343 339 331 323 315 303 286 274 271 266 262 264 266 266
200 183 170 197 184 185 226 224 182 102 155 170 179 198 208 211 219 219 214 234 256 236 242 255 243 246 270 289 298 304 308 309 311 315 318 322 327 331 332 334 338 339 339 339 340 342 343 344 343 343 346 349 350 351 353 353 351 349 348 347 346 348 351 350 348 349 352 351 350 350 350 348 347 346 340 327 315 304 283 261 257 258 260 262 262 264
190 153 95 188 196 223 260 250 188 180 181 185 200 220 214 208 212 216 229 250 248 238 251 260 250 256 279 293 300 306 308 309 314 318 321 326 330 332 333 336 339 340 340 340 341 343 343 344 345 345 346 349 351 352 354 355 353 350 349 348 347 348 351 354 352 353 354 353 352 354 353 349 348 349 347 336 317 300 282 264 258 258 260 263 262 263
176 160 172 215 197 208 239 201 180 206 211 197 207 222 222 214 214 224 245 255 243 246 262 266 262 271 285 293 299 305 309 313 318 322 325 329 332 333 335 337 339 340 341 341 343 343 343 344 346 347 348 349 351 352 354 354 353 352 351 350 347 347 353 358 356 355 357 358 356 356 355 354 354 352 348 344 331 306 283 272 271 265 260 259 259 258
173 167 180 219 216 215 237 212 186 208 215 212 219 225 226 229 235 245 253 252 249 259 268 267 266 276 286 294 299 304 311 317 322 324 327 330 333 334 336 337 339 340 341 342 344 344 345 346 347 348 349 350 351 353 354 355 354 353 353 352 349 348 355 0 360 359 1 1 359 358 356 356 358 356 350 343 336 322 302 284 278 274 268 262 258 256
149 166 173 195 217 230 248 245 227 209 205 215 226 233 236 238 243 248 250 249 255 261 260 258 267 278 287 293 298 303 312 319 323 325 327 330 334 335 335 336 338 339 340 341 343 345 346 346 346 348 350 351 352 353 354 355 355 355 356 354 351 350 357 2 2 3 5 6 4 1 358 356 358 358 355 346 334 324 315 298 282 275 271 266 262 259
144 179 177 170 209 230 232 225 222 221 215 214 224 237 243 242 242 244 248 252 256 256 253 258 271 283 288 291 294 302 313 321 324 324 326 330 334 335 335 337 337 338 340 341 342 344 346 347 349 349 349 351 354 354 355 357 356 357 358 356 352 353 360 5 4 5 8 10 8 4 1 360 360 0 1 358 348 336 328 318 299 279 271 267 263 259
176 200 194 189 214 223 219 221 220 219 224 220 220 230 236 237 240 245 250 254 254 252 254 262 272 281 284 286 292 301 312 319 321 321 324 330 333 334 335 337 337 337 340 341 341 343 345 348 350 351 350 352 354 355 357 358 358 358 359 358 355 356 3 8 8 8 11 13 12 9 5 3 4 5 6 6 5 358 348 336 320 300 288 280 269 258